QFA490 YMML-YSSY

Flight info

Callsign QFA490
Flight time 1h 2m
Altitude 39000
Route ML H129 DOSEL Y59 RIVET RIVET4
Aircraft B738/M-SDE2E3FGHIRWXY/LB1

Departure

Time 2026-05-04 08:57
Airport Melbourne Airport (YMML)

Arrival

Time 2026-05-04 10:00
Airport Sydney Kingsford Smith International Airport (YSSY)
Time Latitude Longitude Altitude Speed Heading
2026-05-04 07:56 -37.66735 144.85160 442 ft 0 kts 82°
2026-05-04 08:27 -37.66735 144.85156 442 ft 2 kts 82°
2026-05-04 08:28 -37.66738 144.85133 442 ft 3 kts 84°
2026-05-04 08:28 -37.66740 144.85108 442 ft 3 kts 84°
2026-05-04 08:28 -37.66742 144.85083 442 ft 3 kts 73°
2026-05-04 08:28 -37.66750 144.85063 442 ft 3 kts 31°
2026-05-04 08:29 -37.66756 144.85059 442 ft 0 kts 352°
2026-05-04 08:33 -37.66730 144.85063 442 ft 9 kts 14°
2026-05-04 08:35 -37.66582 144.84810 442 ft 11 kts 174°
2026-05-04 08:35 -37.66636 144.84768 442 ft 11 kts 256°
2026-05-04 08:35 -37.66649 144.84678 442 ft 10 kts 262°
2026-05-04 08:35 -37.66657 144.84590 442 ft 10 kts 263°
2026-05-04 08:37 -37.66755 144.83967 442 ft 13 kts 223°
2026-05-04 08:38 -37.66825 144.83946 442 ft 11 kts 121°
2026-05-04 08:38 -37.66885 144.84000 442 ft 11 kts 171°
2026-05-04 08:38 -37.66979 144.84017 442 ft 17 kts 171°
2026-05-04 08:40 -37.67636 144.84149 442 ft 6 kts 174°
2026-05-04 08:40 -37.67650 144.84151 442 ft 0 kts 174°
2026-05-04 08:44 -37.67652 144.84151 442 ft 3 kts 174°
2026-05-04 08:46 -37.67677 144.84154 442 ft 0 kts 174°
2026-05-04 08:46 -37.67685 144.84155 442 ft 5 kts 174°
2026-05-04 08:46 -37.67744 144.84163 442 ft 9 kts 173°
2026-05-04 08:47 -37.67752 144.84164 442 ft 0 kts 173°
2026-05-04 08:49 -37.67752 144.84165 442 ft 0 kts 173°
2026-05-04 08:50 -37.67806 144.84174 442 ft 0 kts 171°
2026-05-04 08:51 -37.67815 144.84176 442 ft 5 kts 171°
2026-05-04 08:51 -37.67860 144.84169 442 ft 7 kts 234°
2026-05-04 08:51 -37.67870 144.84128 442 ft 0 kts 262°
2026-05-04 08:54 -37.67876 144.84077 442 ft 14 kts 262°
2026-05-04 08:55 -37.67862 144.83947 442 ft 16 kts 323°
2026-05-04 08:55 -37.67758 144.83945 442 ft 15 kts 351°
2026-05-04 08:55 -37.67596 144.83914 442 ft 44 kts 351°
2026-05-04 08:55 -37.67075 144.83819 442 ft 106 kts 351°
2026-05-04 08:57 -37.58159 144.82392 3584 ft 225 kts
2026-05-04 09:01 -37.37211 145.02990 11320 ft 345 kts 53°
2026-05-04 09:01 -37.35822 145.05478 11703 ft 358 kts 53°
2026-05-04 09:01 -37.34388 145.08067 12310 ft 363 kts 53°
2026-05-04 09:01 -37.32936 145.10682 12961 ft 366 kts 53°
2026-05-04 09:02 -37.31458 145.13312 13602 ft 370 kts 52°
2026-05-04 09:02 -37.29961 145.15956 14229 ft 373 kts 52°
2026-05-04 09:02 -37.28446 145.18623 14844 ft 377 kts 52°
2026-05-04 09:02 -37.26909 145.21322 15449 ft 380 kts 52°
2026-05-04 09:03 -37.25366 145.24028 16036 ft 384 kts 52°
2026-05-04 09:03 -37.23805 145.26764 16613 ft 387 kts 52°
2026-05-04 09:03 -37.22227 145.29526 17176 ft 390 kts 52°
2026-05-04 09:03 -37.20638 145.32308 17728 ft 394 kts 52°
2026-05-04 09:04 -37.19035 145.35112 18268 ft 397 kts 52°
2026-05-04 09:04 -37.17419 145.37939 18798 ft 400 kts 52°
2026-05-04 09:04 -37.15792 145.40787 19316 ft 403 kts 52°
2026-05-04 09:04 -37.14148 145.43648 19825 ft 406 kts 52°
2026-05-04 09:05 -37.12487 145.46535 20323 ft 409 kts 52°
2026-05-04 09:05 -37.10816 145.49436 20813 ft 412 kts 52°
2026-05-04 09:05 -37.09129 145.52362 21291 ft 415 kts 52°
2026-05-04 09:05 -37.07432 145.55301 21758 ft 418 kts 52°
2026-05-04 09:06 -37.05721 145.58262 22213 ft 421 kts 52°
2026-05-04 09:07 -36.93457 145.79497 25107 ft 439 kts 52°
2026-05-04 09:08 -36.91672 145.82603 25481 ft 442 kts 52°
2026-05-04 09:08 -36.89868 145.85730 25846 ft 444 kts 52°
2026-05-04 09:08 -36.88054 145.88865 26200 ft 446 kts 52°
2026-05-04 09:08 -36.86232 145.92007 26547 ft 449 kts 52°
2026-05-04 09:09 -36.84395 145.95170 26884 ft 451 kts 52°
2026-05-04 09:09 -36.82547 145.98347 27213 ft 453 kts 52°
2026-05-04 09:09 -36.80691 146.01535 27534 ft 455 kts 52°
2026-05-04 09:09 -36.78826 146.04734 27846 ft 457 kts 52°
2026-05-04 09:10 -36.76948 146.07953 28151 ft 459 kts 52°
2026-05-04 09:10 -36.75062 146.11180 28449 ft 461 kts 52°
2026-05-04 09:10 -36.73192 146.14379 28736 ft 463 kts 52°
2026-05-04 09:10 -36.71287 146.17635 29018 ft 465 kts 52°
2026-05-04 09:11 -36.69375 146.20898 29295 ft 467 kts 52°
2026-05-04 09:11 -36.67452 146.24177 29565 ft 469 kts 52°
2026-05-04 09:11 -36.65524 146.27462 29826 ft 471 kts 52°
2026-05-04 09:11 -36.63587 146.30760 30079 ft 473 kts 52°
2026-05-04 09:12 -36.61637 146.34074 30328 ft 475 kts 52°
2026-05-04 09:12 -36.59684 146.37392 30568 ft 476 kts 52°
2026-05-04 09:14 -36.45864 146.60778 32443 ft 479 kts 52°
2026-05-04 09:14 -36.43890 146.64105 32730 ft 478 kts 52°
2026-05-04 09:14 -36.41917 146.67428 33010 ft 477 kts 52°
2026-05-04 09:14 -36.39950 146.70737 33285 ft 477 kts 52°
2026-05-04 09:15 -36.37979 146.74050 33555 ft 476 kts 52°
2026-05-04 09:15 -36.36025 146.77368 33821 ft 476 kts 52°
2026-05-04 09:15 -36.34067 146.80673 34082 ft 475 kts 52°
2026-05-04 09:15 -36.32099 146.83973 34338 ft 475 kts 51°
2026-05-04 09:17 -36.16401 147.10109 36203 ft 471 kts 51°
2026-05-04 09:18 -36.14440 147.13356 36400 ft 471 kts 51°
2026-05-04 09:18 -36.12474 147.16608 36595 ft 471 kts 51°
2026-05-04 09:18 -36.10541 147.19802 36783 ft 471 kts 51°
2026-05-04 09:18 -36.08575 147.23049 36971 ft 471 kts 51°
2026-05-04 09:19 -36.06608 147.26296 37154 ft 471 kts 51°
2026-05-04 09:19 -36.04647 147.29529 37331 ft 471 kts 51°
2026-05-04 09:19 -36.02684 147.32779 37505 ft 471 kts 52°
2026-05-04 09:19 -36.00743 147.36046 37675 ft 471 kts 51°
2026-05-04 09:20 -35.98786 147.39297 37841 ft 471 kts 51°
2026-05-04 09:20 -35.96823 147.42533 38004 ft 471 kts 51°
2026-05-04 09:20 -35.94857 147.45763 38179 ft 471 kts 51°
2026-05-04 09:20 -35.92891 147.48987 38332 ft 471 kts 51°
2026-05-04 09:21 -35.90923 147.52211 38484 ft 471 kts 51°
2026-05-04 09:21 -35.88953 147.55435 38632 ft 471 kts 51°
2026-05-04 09:21 -35.86980 147.58662 38777 ft 471 kts 51°
2026-05-04 09:21 -35.85011 147.61883 38918 ft 471 kts 51°
2026-05-04 09:22 -35.81066 147.68326 38988 ft 471 kts 51°
2026-05-04 09:22 -35.77109 147.74763 38996 ft 470 kts 51°
2026-05-04 09:23 -35.73180 147.81145 38997 ft 470 kts 51°
2026-05-04 09:23 -35.69220 147.87567 38997 ft 470 kts 51°
2026-05-04 09:25 -35.53429 148.13227 38994 ft 470 kts 51°
2026-05-04 09:26 -35.50126 148.18538 38997 ft 470 kts 51°
2026-05-04 09:26 -35.46156 148.24911 38997 ft 470 kts 51°
2026-05-04 09:27 -35.41528 148.32337 38997 ft 470 kts 50°
2026-05-04 09:27 -35.37545 148.38695 38997 ft 470 kts 50°
2026-05-04 09:28 -35.33560 148.45044 38997 ft 470 kts 50°
2026-05-04 09:28 -35.30214 148.50367 38997 ft 470 kts 50°
2026-05-04 09:29 -35.26221 148.56709 38997 ft 470 kts 50°
2026-05-04 09:29 -35.22226 148.63044 38997 ft 470 kts 50°
2026-05-04 09:30 -35.18262 148.69403 38995 ft 470 kts 51°
2026-05-04 09:30 -35.14278 148.75744 38997 ft 470 kts 50°
2026-05-04 09:31 -35.10287 148.82068 38997 ft 470 kts 50°
2026-05-04 09:31 -35.06288 148.88388 38997 ft 470 kts 50°
2026-05-04 09:32 -35.02274 148.94720 38645 ft 476 kts 50°
2026-05-04 09:34 -34.87999 149.17194 34122 ft 476 kts 50°
2026-05-04 09:34 -34.85987 149.20336 33597 ft 466 kts 50°
2026-05-04 09:34 -34.83995 149.23441 33080 ft 464 kts 50°
2026-05-04 09:34 -34.82012 149.26531 32564 ft 462 kts 50°
2026-05-04 09:35 -34.80039 149.29603 32052 ft 460 kts 50°
2026-05-04 09:35 -34.78072 149.32663 31544 ft 458 kts 50°
2026-05-04 09:35 -34.76114 149.35709 31040 ft 456 kts 50°
2026-05-04 09:35 -34.74239 149.38810 30539 ft 455 kts 54°
2026-05-04 09:37 -34.63858 149.62260 27094 ft 444 kts 61°
2026-05-04 09:37 -34.62426 149.65567 26602 ft 442 kts 60°
2026-05-04 09:38 -34.60988 149.68854 26110 ft 440 kts 60°
2026-05-04 09:38 -34.59551 149.72125 25617 ft 438 kts 60°
2026-05-04 09:38 -34.58120 149.75373 25226 ft 433 kts 60°
2026-05-04 09:38 -34.56719 149.78549 25130 ft 421 kts 60°
2026-05-04 09:39 -34.55357 149.81634 25061 ft 409 kts 60°
2026-05-04 09:39 -34.54032 149.84636 24999 ft 397 kts 60°
2026-05-04 09:39 -34.52754 149.87528 24975 ft 379 kts 60°
2026-05-04 09:39 -34.51549 149.90254 24954 ft 355 kts 60°
2026-05-04 09:40 -34.50419 149.92812 24939 ft 334 kts 59°
2026-05-04 09:40 -34.49349 149.95231 24942 ft 319 kts 59°
2026-05-04 09:40 -34.48309 149.97576 24788 ft 315 kts 59°
2026-05-04 09:40 -34.47250 149.99962 24115 ft 330 kts 59°
2026-05-04 09:41 -34.46136 150.02470 23329 ft 346 kts 59°
2026-05-04 09:42 -34.37530 150.21922 19572 ft 375 kts 59°
2026-05-04 09:43 -34.36293 150.24690 19215 ft 373 kts 59°
2026-05-04 09:43 -34.35061 150.27442 18859 ft 371 kts 59°
2026-05-04 09:43 -34.33837 150.30175 18507 ft 369 kts 59°
2026-05-04 09:43 -34.32617 150.32898 18154 ft 367 kts 59°
2026-05-04 09:44 -34.31404 150.35603 17803 ft 365 kts 59°
2026-05-04 09:44 -34.30197 150.38295 17455 ft 363 kts 59°
2026-05-04 09:44 -34.28995 150.40975 17106 ft 361 kts 59°
2026-05-04 09:46 -34.20785 150.59328 14719 ft 348 kts 59°
2026-05-04 09:46 -34.19631 150.61894 14384 ft 347 kts 59°
2026-05-04 09:46 -34.18485 150.64444 14051 ft 345 kts 59°
2026-05-04 09:47 -34.17350 150.66984 13720 ft 343 kts 60°
2026-05-04 09:47 -34.16215 150.69515 13389 ft 341 kts 60°
2026-05-04 09:49 -34.08793 150.85983 12038 ft 305 kts 60°
2026-05-04 09:49 -34.07821 150.88144 11774 ft 304 kts 60°
2026-05-04 09:49 -34.06811 150.90384 11500 ft 303 kts 59°
2026-05-04 09:51 -34.04767 151.04056 9802 ft 292 kts 134°
2026-05-04 09:51 -34.06169 151.05807 9536 ft 289 kts 139°
2026-05-04 09:51 -34.07769 151.07241 9234 ft 284 kts 156°
2026-05-04 09:51 -34.09586 151.08082 8970 ft 278 kts 168°
2026-05-04 09:52 -34.11453 151.08656 8690 ft 276 kts 172°
2026-05-04 09:52 -34.13332 151.09127 8414 ft 275 kts 173°
2026-05-04 09:52 -34.15195 151.09598 8139 ft 274 kts 173°
2026-05-04 09:52 -34.17056 151.10076 7863 ft 273 kts 172°
2026-05-04 09:53 -34.18907 151.10554 7587 ft 271 kts 172°
2026-05-04 09:53 -34.20744 151.11060 7300 ft 272 kts 167°
2026-05-04 09:53 -34.22401 151.12216 6978 ft 280 kts 140°
2026-05-04 09:53 -34.23480 151.14167 6690 ft 282 kts 112°
2026-05-04 09:54 -34.23783 151.16492 6445 ft 279 kts 90°
2026-05-04 09:54 -34.23608 151.18807 6178 ft 275 kts 74°
2026-05-04 09:54 -34.22732 151.20804 5918 ft 267 kts 46°
2026-05-04 09:54 -34.21290 151.22134 5709 ft 258 kts 28°
2026-05-04 09:55 -34.19726 151.23136 5551 ft 251 kts 24°
2026-05-04 09:55 -34.18108 151.23781 5372 ft 242 kts
2026-05-04 09:55 -34.16486 151.23682 5293 ft 230 kts 351°
2026-05-04 09:55 -34.14935 151.23385 5251 ft 217 kts 349°
2026-05-04 09:56 -34.13475 151.23044 5070 ft 212 kts 346°
2026-05-04 09:56 -34.12103 151.22532 4681 ft 217 kts 340°
2026-05-04 09:56 -34.10648 151.21868 4304 ft 220 kts 339°
2026-05-04 09:56 -34.09173 151.21230 3792 ft 230 kts 343°
2026-05-04 09:57 -34.07637 151.20778 3291 ft 227 kts 348°
2026-05-04 09:57 -34.06106 151.20452 2724 ft 220 kts 351°
2026-05-04 09:57 -34.04633 151.20169 2160 ft 209 kts 351°
2026-05-04 09:57 -34.03232 151.19871 1648 ft 199 kts 348°
2026-05-04 09:58 -34.01914 151.19501 1187 ft 189 kts 346°
2026-05-04 09:58 -34.00676 151.19153 904 ft 177 kts 348°
2026-05-04 09:58 -33.99492 151.18858 714 ft 170 kts 348°
2026-05-04 10:00 -33.94433 151.17714 29 ft 14 kts 18°
2026-05-04 10:00 -33.94389 151.17730 29 ft 3 kts 15°
2026-05-04 10:02 -33.94148 151.17677 29 ft 18 kts 345°
2026-05-04 10:04 -33.93376 151.17504 29 ft 13 kts 346°
2026-05-04 10:04 -33.93304 151.17485 29 ft 10 kts 348°
2026-05-04 10:04 -33.93237 151.17468 29 ft 10 kts 346°
2026-05-04 10:04 -33.93173 151.17449 29 ft 9 kts 349°
2026-05-04 10:05 -33.93098 151.17431 29 ft 15 kts 348°
2026-05-04 10:05 -33.92984 151.17401 29 ft 14 kts 347°
2026-05-04 10:05 -33.92974 151.17408 29 ft 2 kts 84°
2026-05-04 10:05 -33.92984 151.17470 29 ft 16 kts 103°
2026-05-04 10:06 -33.93008 151.17604 29 ft 13 kts 101°
2026-05-04 10:06 -33.93036 151.17680 29 ft 10 kts 161°
2026-05-04 10:06 -33.93081 151.17676 29 ft 3 kts 189°
2026-05-04 10:08 -33.93098 151.17672 29 ft 0 kts 188°